SITRO-AIS-38

operational
NORAD ID: 61786 Int'l Des: 2024-199 Owner: SITRO Country: RU Constellation: sitronics
LEOCIRCULARRETROGRADESSO

SITRO-AIS-38について

説明を読み込み中...

リアルタイム位置

3D地球を読み込み中...

次回通過

高度履歴

Altitude vs Time

uPlot chart will show altitude changes over time

軌道要素

1 61786U 24199BD 26095.62120253 .00022423 00000-0 46307-3 0 9992
2 61786 97.3052 329.2500 0010140 191.2982 168.8041 15.45803290123095
Epoch: Apr 5, 2026 • Age: 6 hours

現在のステータス

高度 438.5 km
速度 7.65 km/s
衛星直下点 20.00°N, 174.52°E
打ち上げ日 Nov 4, 2024
運用期間 1.4 years
タイプ other

技術仕様

分類 Payload
質量 3.00 kg
乾燥質量 3.00 kg
総質量 3.00 kg
長さ 0.30 m
直径 0.10 m
スパン 0.30 m
形状 Box
製造者 SPUT
バスタイプ Cubesat 3U
フェーズステータス In Orbit
所有者/国 SITRO/RU

大規模コンステレーション

Loading constellations...